• In Czech Republic
  • List of Countries
  • For 7 days
  • Water Temperature
  • Satellite Maps
  • Weather Map
  • Weather Widgets
  • user-avatar
    Login

    Hourly Weather Lewis

    Today, 24 October, Tuesday

    Time Temperature Precipitation Wind Pressure Humidity
    00:00 +10°C° 0.4 mm 9 mps 744 mmHg 82%
    01:00 +10°C° 0.4 mm 9 mps 743 mmHg 84%
    02:00 +10°C° 0.4 mm 9 mps 743 mmHg 86%
    03:00 +10°C° 0.4 mm 9 mps 743 mmHg 88%
    04:00 +8°C° 1.5 mm 9 mps 742 mmHg 89%
    05:00 +8°C° 1.5 mm 9 mps 742 mmHg 90%
    06:00 +7°C° 1.5 mm 9 mps 741 mmHg 91%
    07:00 +9°C° 0.8 mm 8 mps 741 mmHg 91%
    08:00 +10°C° 0.8 mm 8 mps 740 mmHg 91%
    09:00 +10°C° 0.8 mm 7 mps 740 mmHg 91%
    10:00 +10°C° 0.1 mm 8 mps 740 mmHg 87%
    11:00 +11°C° 0.1 mm 9 mps 740 mmHg 83%
    12:00 +11°C° 0.1 mm 9 mps 741 mmHg 80%
    13:00 +11°C° 0.2 mm 9 mps 741 mmHg 81%
    14:00 +11°C° 0.2 mm 9 mps 741 mmHg 82%
    15:00 +9°C° 0.2 mm 10 mps 741 mmHg 83%
    16:00 +10°C° 0.1 mm 9 mps 741 mmHg 84%
    17:00 +10°C° 0.1 mm 9 mps 741 mmHg 85%
    18:00 +10°C° 0.1 mm 9 mps 741 mmHg 86%
    19:00 +10°C° 0.2 mm 9 mps 741 mmHg 85%
    20:00 +10°C° 0.2 mm 9 mps 741 mmHg 84%
    21:00 +10°C° 0.2 mm 9 mps 741 mmHg 83%
    22:00 +10°C° 0.4 mm 9 mps 741 mmHg 82%
    23:00 +10°C° 0.4 mm 9 mps 741 mmHg 81%

    Tomorrow, 25 October, Wednesday

    Time Temperature Precipitation Wind Pressure Humidity
    00:00 +10°C° 0.4 mm 9 mps 741 mmHg 81%
    01:00 +10°C° 0.2 mm 9 mps 741 mmHg 81%
    02:00 +10°C° 0.2 mm 9 mps 742 mmHg 81%
    03:00 +10°C° 0.2 mm 9 mps 742 mmHg 82%
    04:00 +9°C° 0.2 mm 10 mps 742 mmHg 81%
    05:00 +9°C° 0.2 mm 10 mps 742 mmHg 81%
    06:00 +9°C° 0.2 mm 11 mps 743 mmHg 81%
    07:00 +9°C° 0.1 mm 11 mps 743 mmHg 80%
    08:00 +9°C° 0.1 mm 11 mps 743 mmHg 79%
    09:00 +9°C° 0.1 mm 11 mps 744 mmHg 79%
    10:00 +9°C° 0.2 mm 12 mps 744 mmHg 78%
    11:00 +9°C° 0.2 mm 12 mps 744 mmHg 77%
    12:00 +10°C° 0.2 mm 13 mps 744 mmHg 77%
    13:00 +10°C° 0.3 mm 13 mps 745 mmHg 77%
    14:00 +9°C° 0.3 mm 13 mps 745 mmHg 77%
    15:00 +9°C° 0.3 mm 14 mps 745 mmHg 78%
    16:00 +9°C° 0.2 mm 14 mps 745 mmHg 78%
    17:00 +9°C° 0.2 mm 14 mps 745 mmHg 79%
    18:00 +9°C° 0.2 mm 14 mps 745 mmHg 80%
    19:00 +9°C° 0.1 mm 14 mps 745 mmHg 79%
    20:00 +9°C° 0.1 mm 14 mps 745 mmHg 79%
    21:00 +9°C° 0.1 mm 15 mps 745 mmHg 79%
    22:00 +9°C° 0.1 mm 15 mps 746 mmHg 79%
    23:00 +9°C° 0.1 mm 14 mps 746 mmHg 80%

    Day after tomorrow, 26 October, Thursday

    Time Temperature Precipitation Wind Pressure Humidity
    00:00 +9°C° 0.1 mm 14 mps 747 mmHg 81%
    01:00 +9°C° 0.1 mm 14 mps 747 mmHg 81%
    02:00 +9°C° 0.1 mm 13 mps 748 mmHg 82%
    03:00 +9°C° 0.1 mm 13 mps 748 mmHg 82%
    04:00 +9°C° 0.1 mm 12 mps 749 mmHg 82%
    05:00 +9°C° 0.1 mm 11 mps 749 mmHg 82%
    06:00 +9°C° 0.1 mm 11 mps 750 mmHg 82%
    07:00 +9°C° 0.3 mm 10 mps 750 mmHg 82%
    08:00 +10°C° 0.3 mm 9 mps 751 mmHg 83%
    09:00 +10°C° 0.3 mm 9 mps 752 mmHg 83%
    10:00 +10°C° 0.3 mm 8 mps 752 mmHg 83%
    11:00 +10°C° 0.3 mm 8 mps 753 mmHg 83%
    12:00 +10°C° 0.3 mm 7 mps 753 mmHg 83%
    13:00 +10°C° 0.2 mm 7 mps 754 mmHg 82%
    14:00 +10°C° 0.2 mm 7 mps 754 mmHg 81%
    15:00 +10°C° 0.2 mm 7 mps 754 mmHg 80%
    16:00 +9°C° 0 mm 7 mps 755 mmHg 79%
    17:00 +9°C° 0 mm 7 mps 755 mmHg 78%
    18:00 +9°C° 0 mm 7 mps 755 mmHg 76%
    19:00 +8°C° 0 mm 7 mps 756 mmHg 77%
    20:00 +8°C° 0 mm 7 mps 756 mmHg 79%
    21:00 +8°C° 0 mm 7 mps 757 mmHg 80%
    22:00 +7°C° 0.1 mm 8 mps 757 mmHg 79%
    23:00 +7°C° 0.1 mm 8 mps 757 mmHg 79%

    27 October, Friday

    Time Temperature Precipitation Wind Pressure Humidity
    00:00 +7°C° 0.1 mm 9 mps 757 mmHg 79%
    01:00 +7°C° 0 mm 9 mps 757 mmHg 78%
    02:00 +7°C° 0 mm 9 mps 757 mmHg 77%
    03:00 +7°C° 0 mm 8 mps 757 mmHg 77%
    04:00 +7°C° 0 mm 8 mps 757 mmHg 77%
    05:00 +7°C° 0 mm 8 mps 757 mmHg 77%
    06:00 +7°C° 0 mm 8 mps 758 mmHg 78%
    07:00 +7°C° 0 mm 8 mps 758 mmHg 79%
    08:00 +7°C° 0 mm 8 mps 757 mmHg 80%
    09:00 +7°C° 0 mm 8 mps 757 mmHg 82%
    10:00 +7°C° 0 mm 9 mps 757 mmHg 81%
    11:00 +8°C° 0 mm 10 mps 757 mmHg 80%
    12:00 +8°C° 0 mm 11 mps 757 mmHg 80%
    13:00 +8°C° 0 mm 12 mps 756 mmHg 78%
    14:00 +8°C° 0 mm 12 mps 755 mmHg 75%
    15:00 +8°C° 0 mm 13 mps 755 mmHg 73%
    16:00 +8°C° 0.1 mm 13 mps 754 mmHg 74%
    17:00 +8°C° 0.1 mm 14 mps 753 mmHg 74%
    18:00 +8°C° 0.1 mm 15 mps 752 mmHg 74%
    19:00 +8°C° 1.3 mm 15 mps 751 mmHg 77%
    20:00 +8°C° 1.3 mm 15 mps 751 mmHg 80%
    21:00 +8°C° 1.3 mm 15 mps 750 mmHg 84%
    22:00 +8°C° 0.1 mm 14 mps 750 mmHg 84%
    23:00 +8°C° 0.1 mm 14 mps 749 mmHg 84%

    28 October, Saturday

    Time Temperature Precipitation Wind Pressure Humidity
    00:00 +9°C° 0.1 mm 13 mps 749 mmHg 84%
    01:00 +9°C° 0.1 mm 12 mps 749 mmHg 83%
    02:00 +8°C° 0.1 mm 12 mps 749 mmHg 81%
    03:00 +8°C° 0.1 mm 12 mps 749 mmHg 80%
    04:00 +8°C° 0 mm 11 mps 750 mmHg 77%
    05:00 +8°C° 0 mm 11 mps 750 mmHg 75%
    06:00 +7°C° 0 mm 10 mps 751 mmHg 73%
    07:00 +7°C° 0 mm 11 mps 752 mmHg 69%
    08:00 +7°C° 0 mm 12 mps 752 mmHg 65%
    09:00 +5°C° 0 mm 12 mps 753 mmHg 61%
    10:00 +5°C° 0 mm 12 mps 754 mmHg 61%
    11:00 +5°C° 0 mm 12 mps 754 mmHg 61%
    12:00 +5°C° 0 mm 13 mps 755 mmHg 61%
    13:00 +5°C° 0 mm 13 mps 755 mmHg 63%
    14:00 +5°C° 0 mm 13 mps 756 mmHg 64%
    15:00 +5°C° 0 mm 13 mps 756 mmHg 66%
    16:00 +5°C° 0 mm 12 mps 756 mmHg 67%
    17:00 +5°C° 0 mm 12 mps 757 mmHg 68%
    18:00 +4°C° 0 mm 11 mps 757 mmHg 70%
    19:00 +4°C° 0 mm 11 mps 758 mmHg 69%
    20:00 +5°C° 0 mm 10 mps 758 mmHg 68%
    21:00 +5°C° 0 mm 9 mps 758 mmHg 67%
    22:00 +5°C° 0 mm 8 mps 758 mmHg 67%
    23:00 +5°C° 0 mm 7 mps 758 mmHg 67%

    29 October, Sunday

    Time Temperature Precipitation Wind Pressure Humidity
    00:00 +5°C° 0 mm 6 mps 758 mmHg 66%
    01:00 +5°C° 0 mm 6 mps 758 mmHg 68%
    02:00 +5°C° 0 mm 6 mps 758 mmHg 69%
    03:00 +7°C° 0 mm 5 mps 758 mmHg 70%
    04:00 +7°C° 0 mm 6 mps 758 mmHg 70%
    05:00 +6°C° 0 mm 7 mps 757 mmHg 70%
    06:00 +7°C° 0 mm 8 mps 757 mmHg 71%
    07:00 +7°C° 0 mm 9 mps 756 mmHg 76%
    08:00 +7°C° 0 mm 9 mps 756 mmHg 80%
    09:00 +8°C° 0 mm 9 mps 755 mmHg 85%
    10:00 +8°C° 0.1 mm 10 mps 755 mmHg 87%
    11:00 +8°C° 0.1 mm 10 mps 754 mmHg 88%
    12:00 +9°C° 0.1 mm 10 mps 754 mmHg 89%
    13:00 +9°C° 0.1 mm 10 mps 753 mmHg 89%
    14:00 +9°C° 0.1 mm 10 mps 753 mmHg 88%
    15:00 +9°C° 0.1 mm 10 mps 752 mmHg 88%
    16:00 +9°C° 0.1 mm 11 mps 752 mmHg 87%
    17:00 +9°C° 0.1 mm 11 mps 752 mmHg 86%
    18:00 +9°C° 0.1 mm 11 mps 752 mmHg 85%
    19:00 +9°C° 0.1 mm 11 mps 752 mmHg 86%
    20:00 +9°C° 0.1 mm 11 mps 752 mmHg 87%
    21:00 +9°C° 0.1 mm 11 mps 752 mmHg 88%
    22:00 +9°C° 0.1 mm 11 mps 752 mmHg 87%
    23:00 +9°C° 0.1 mm 11 mps 752 mmHg 85%

    30 October, Monday

    Time Temperature Precipitation Wind Pressure Humidity
    00:00 +9°C° 0.1 mm 11 mps 752 mmHg 83%
    01:00 +8°C° 0 mm 11 mps 751 mmHg 82%
    02:00 +8°C° 0 mm 11 mps 751 mmHg 81%
    03:00 +8°C° 0 mm 11 mps 751 mmHg 80%
    04:00 +8°C° 0 mm 11 mps 751 mmHg 80%
    05:00 +8°C° 0 mm 10 mps 751 mmHg 80%
    06:00 +8°C° 0 mm 10 mps 751 mmHg 80%
    07:00 +8°C° 0 mm 10 mps 752 mmHg 80%
    08:00 +7°C° 0 mm 10 mps 752 mmHg 80%
    09:00 +7°C° 0 mm 9 mps 752 mmHg 80%
    10:00 +8°C° 0 mm 9 mps 752 mmHg 78%
    11:00 +8°C° 0 mm 9 mps 753 mmHg 77%
    12:00 +9°C° 0 mm 8 mps 753 mmHg 75%
    13:00 +9°C° 0 mm 8 mps 753 mmHg 75%
    14:00 +9°C° 0 mm 7 mps 753 mmHg 75%
    15:00 +9°C° 0 mm 7 mps 753 mmHg 75%
    16:00 +8°C° 0 mm 6 mps 754 mmHg 76%
    17:00 +8°C° 0 mm 6 mps 754 mmHg 78%
    18:00 +8°C° 0 mm 5 mps 754 mmHg 79%
    19:00 +8°C° 0 mm 5 mps 754 mmHg 80%
    20:00 +8°C° 0 mm 4 mps 754 mmHg 81%
    21:00 +7°C° 0 mm 4 mps 755 mmHg 82%
    22:00 +7°C° 0 mm 4 mps 754 mmHg 82%
    23:00 +8°C° 0 mm 5 mps 754 mmHg 83%
    Show more